TimeCST,TemperatureF,Dew PointF,Humidity,Sea Level PressureIn,VisibilityMPH,Wind Direction,Wind SpeedMPH,Gust SpeedMPH,PrecipitationIn,Events,Conditions,WindDirDegrees,DateUTC
12:15 AM,39.2,28.4,65,30.29,10.0,North,5.8,-,N/A,,Overcast,10,2013-01-24 06:15:00
12:35 AM,39.2,26.6,61,30.28,10.0,NNE,3.5,-,N/A,,Overcast,30,2013-01-24 06:35:00
12:55 AM,39.2,24.8,56,30.28,10.0,NNE,4.6,-,N/A,,Overcast,30,2013-01-24 06:55:00
1:15 AM,39.2,24.8,56,30.29,10.0,NNE,5.8,-,N/A,,Overcast,30,2013-01-24 07:15:00
1:35 AM,37.4,23.0,56,30.29,10.0,NNE,5.8,-,N/A,,Overcast,30,2013-01-24 07:35:00
1:55 AM,37.4,23.0,56,30.30,10.0,NE,8.1,-,N/A,,Overcast,40,2013-01-24 07:55:00
2:15 AM,37.4,23.0,56,30.30,10.0,NNE,6.9,-,N/A,,Overcast,30,2013-01-24 08:15:00
2:35 AM,35.6,23.0,60,30.31,10.0,NE,4.6,-,N/A,,Overcast,40,2013-01-24 08:35:00
2:55 AM,35.6,23.0,60,30.32,10.0,NE,5.8,-,N/A,,Overcast,50,2013-01-24 08:55:00
3:15 AM,35.6,21.2,56,30.32,10.0,NE,5.8,-,N/A,,Overcast,50,2013-01-24 09:15:00
3:35 AM,35.6,21.2,56,30.32,10.0,NE,5.8,-,N/A,,Overcast,50,2013-01-24 09:35:00
3:55 AM,35.6,19.4,52,30.33,10.0,NE,5.8,-,N/A,,Overcast,40,2013-01-24 09:55:00
4:15 AM,33.8,19.4,56,30.33,10.0,NE,6.9,-,N/A,,Overcast,50,2013-01-24 10:15:00
4:55 AM,33.8,19.4,56,30.33,10.0,NE,6.9,-,N/A,,Overcast,50,2013-01-24 10:55:00
5:15 AM,32.0,17.6,55,30.34,10.0,NE,6.9,-,N/A,,Overcast,50,2013-01-24 11:15:00
5:35 AM,32.0,14.0,48,30.34,10.0,NE,6.9,-,N/A,,Overcast,40,2013-01-24 11:35:00
6:55 AM,32.0,14.0,48,30.25,10.0,NE,6.9,-,N/A,,Overcast,50,2013-01-24 12:55:00
7:46 AM,32.0,14.0,48,30.36,10.0,ENE,4.6,-,N/A,,Overcast,60,2013-01-24 13:46:00
8:45 AM,32.0,12.2,44,30.37,10.0,East,9.2,-,N/A,,Overcast,89,2013-01-24 14:45:00
9:46 AM,32.0,10.4,41,30.39,10.0,East,10.4,17.3,N/A,,Overcast,100,2013-01-24 15:46:00
10:45 AM,32.0,10.4,41,30.38,10.0,ESE,9.2,18.4,N/A,,Overcast,110,2013-01-24 16:45:00
11:48 AM,32.0,10.4,41,30.36,10.0,East,10.4,17.3,N/A,,Overcast,100,2013-01-24 17:48:00
12:51 PM,32.0,14.0,48,30.32,10.0,East,15.0,23.0,N/A,,Overcast,100,2013-01-24 18:51:00
1:46 PM,32.0,10.4,41,30.30,10.0,ESE,13.8,-,N/A,,Overcast,110,2013-01-24 19:46:00
2:45 PM,32.0,10.4,41,30.26,10.0,East,13.8,19.6,N/A,,Overcast,100,2013-01-24 20:45:00
3:55 PM,32.0,12.2,44,30.24,10.0,ESE,12.7,-,N/A,,Overcast,120,2013-01-24 21:55:00
4:54 PM,32.0,14.0,48,30.23,10.0,ESE,11.5,-,N/A,,Overcast,110,2013-01-24 22:54:00
5:45 PM,32.0,14.0,48,30.21,10.0,ESE,12.7,23.0,N/A,,Overcast,120,2013-01-24 23:45:00
6:45 PM,28.4,10.4,47,30.22,10.0,ESE,12.7,19.6,N/A,,Overcast,110,2013-01-25 00:45:00
7:45 PM,28.4,10.4,47,30.19,10.0,ESE,13.8,20.7,N/A,,Overcast,110,2013-01-25 01:45:00
7:55 PM,28.4,10.4,47,30.19,10.0,ESE,15.0,21.9,N/A,,Overcast,110,2013-01-25 01:55:00
8:15 PM,28.4,10.4,47,30.19,10.0,ESE,16.1,25.3,N/A,,Overcast,110,2013-01-25 02:15:00
8:35 PM,28.4,10.4,47,30.19,10.0,ESE,15.0,21.9,N/A,,Overcast,120,2013-01-25 02:35:00
8:45 PM,28.4,10.4,47,30.19,10.0,ESE,13.8,21.9,N/A,,Overcast,110,2013-01-25 02:45:00
8:55 PM,28.4,10.4,47,30.20,10.0,ESE,10.4,19.6,N/A,,Overcast,120,2013-01-25 02:55:00
9:15 PM,28.4,12.2,51,30.20,10.0,ESE,13.8,18.4,N/A,,Overcast,110,2013-01-25 03:15:00
9:35 PM,28.4,12.2,51,30.20,10.0,ESE,12.7,-,N/A,,Overcast,110,2013-01-25 03:35:00
9:55 PM,28.4,14.0,55,30.18,10.0,ESE,13.8,20.7,N/A,,Overcast,120,2013-01-25 03:55:00
10:15 PM,28.4,14.0,55,30.18,10.0,ESE,12.7,19.6,N/A,,Overcast,110,2013-01-25 04:15:00
10:35 PM,26.6,14.0,59,30.18,10.0,ESE,11.5,-,N/A,,Overcast,110,2013-01-25 04:35:00
10:55 PM,26.6,14.0,59,30.17,10.0,ESE,9.2,16.1,N/A,,Overcast,120,2013-01-25 04:55:00
11:15 PM,26.6,17.6,69,30.16,10.0,ESE,10.4,-,N/A,,Overcast,120,2013-01-25 05:15:00
11:35 PM,26.6,17.6,69,30.16,10.0,ESE,10.4,17.3,N/A,,Overcast,120,2013-01-25 05:35:00
11:55 PM,26.6,17.6,69,30.17,10.0,ESE,8.1,16.1,N/A,,Overcast,120,2013-01-25 05:55:00